This demonstration page uses our WeatherBlox Daily Observations layout. Learn more.

Left ArrowRight Arrow

44.89941, -97.11507

Hourly Observations for September 7, 2018

Temp ( °F °C ) Dew Point ( °F °C ) Humidity (%) Winds ( mph kmh ) Pressure ( in mb ) Visibility ( mi km ) Precip ( " mm )
12:53 am 00:53 Clear 57 13.9 49 9.4 74 74 SSE 7 11 30.29 1026 10 16 0.00 0.00
1:53 am 01:53 Clear 55 12.8 48 8.9 77 77 SE 5 7 30.30 1026 10 16 0.00 0.00
2:53 am 02:53 Clear 55 12.8 48 8.9 77 77 SSE 8 13 30.29 1026 10 16 0.00 0.00
3:53 am 03:53 Clear 55 12.8 48 8.9 77 77 SE 7 11 30.28 1026 10 16 0.00 0.00
4:53 am 04:53 Clear 54 12.2 47 8.3 77 77 SE 7 11 30.27 1025 10 16 0.00 0.00
5:53 am 05:53 Clear 53 11.7 46 7.8 77 77 SE 5 7 30.28 1025 10 16 0.00 0.00
6:53 am 06:53 Clear 52 11.1 46 7.8 80 80 Calm 30.28 1026 10 16 0.00 0.00
7:53 am 07:53 Sunny 55 12.8 47 8.3 74 74 Calm 30.30 1026 7 11 0.00 0.00
8:53 am 08:53 Sunny 60 15.6 48 8.9 65 65 SSE 7 11 30.29 1026 10 16 0.00 0.00
9:53 am 09:53 Sunny 64 17.8 49 9.4 58 58 SSE 9 15 30.31 1026 10 16 0.00 0.00
10:53 am 10:53 Sunny 68 20 48 8.9 49 49 SE 7 11 30.32 1027 10 16 0.00 0.00
11:53 am 11:53 Sunny 71 21.7 48 8.9 44 44 SE 8 13 30.30 1026 10 16 0.00 0.00
12:53 pm 12:53 Sunny 70 21.1 47 8.3 44 44 ESE 9 15 30.29 1026 10 16 0.00 0.00
1:53 pm 13:53 Sunny 72 22.2 47 8.3 41 41 SE 9 15 30.27 1025 10 16 0.00 0.00
2:53 pm 14:53 Sunny 74 23.3 48 8.9 40 40 SE 9 15 30.26 1025 10 16 0.00 0.00
3:53 pm 15:53 Sunny 74 23.3 48 8.9 40 40 SE 9 15 30.24 1024 10 16 0.00 0.00
4:53 pm 16:53 Sunny 73 22.8 49 9.4 43 43 SE 12 19 30.24 1024 10 16 0.00 0.00
5:53 pm 17:53 Sunny 73 22.8 48 8.9 41 41 SE 8 13 30.24 1024 10 16 0.00 0.00
6:53 pm 18:53 Sunny 71 21.7 49 9.4 46 46 SE 9 15 30.24 1024 10 16 0.00 0.00
7:53 pm 19:53 Sunny 67 19.4 50 10 55 55 SE 8 13 30.24 1024 10 16 0.00 0.00
8:53 pm 20:53 Clear 63 17.2 51 10.6 65 65 SE 5 7 30.25 1025 10 16 0.00 0.00
9:53 pm 21:53 Clear 62 16.7 50 10 65 65 ESE 6 9 30.26 1025 10 16 0.00 0.00
10:53 pm 22:53 Clear 60 15.6 50 10 70 70 ESE 6 9 30.27 1025 10 16 0.00 0.00
11:53 pm 23:53 Clear 59 15 51 10.6 75 75 SE 6 9 30.26 1025 10 16 0.00 0.00

Powered by AerisWeather